RISAT-2BR2

Last updated on Tue Dec 08 2020 00:02:03 GMT+0000 (Coordinated Universal Time)

1 46905U 20081A 20342.56763647 .00000790 00000-0 71710-4 0 9996 2 46905 36.9030 281.6118 0005816 206.6525 153.3918 14.98164077 4528
UTC large
Height (km)
Speed (km/s)
/
Latitude / Longitude
Inclination (degrees)
Orbital Period (minutes)
Azimuth
Elevation
Range (km)
Doppler Factor

Next 0 passes for location: London (51.5072 / 0.1276)

Sorry there are no passes over London.